| time (UTC) | temp C | wind direction | speed KPH | gust KPH | rain 1hr cm | rain 24hr cm | rain mn cm | humidity % | barometer mb |
| 20260503050003 | 5 | 305 | 11.3 | 20.9 | 0.00 | 0.00 | 0.00 | 65 | 1002.9 |
| 20260503045424 | 5 | 296 | 11.3 | 19.3 | 0.00 | 0.00 | 0.00 | 65 | 1002.8 |
| 20260503044504 | 5 | 298 | 9.7 | 19.3 | 0.00 | 0.00 | 0.00 | 65 | 1002.7 |
| 20260503043603 | 5 | 305 | 9.7 | 14.5 | 0.00 | 0.00 | 0.00 | 66 | 1002.8 |
| 20260503042724 | 5 | 299 | 9.7 | 17.7 | 0.00 | 0.00 | 0.00 | 66 | 1002.9 |
| 20260503041803 | 5 | 287 | 8.0 | 16.1 | 0.00 | 0.00 | 0.00 | 67 | 1002.3 |
| 20260503040903 | 4 | 299 | 8.0 | 16.1 | 0.00 | 0.00 | 0.00 | 67 | 1002.2 |
| 20260503040003 | 4 | 285 | 9.7 | 16.1 | 0.00 | 0.00 | 0.00 | 67 | 1002.1 |
| 20260503035424 | 4 | 290 | 9.7 | 16.1 | 0.00 | 0.00 | 0.00 | 67 | 1001.5 |
| 20260503034503 | 4 | 287 | 8.0 | 16.1 | 0.00 | 0.00 | 0.00 | 68 | 1003.4 |
| 20260503033603 | 4 | 292 | 9.7 | 16.1 | 0.00 | 0.00 | 0.00 | 68 | 1002.7 |
| 20260503032703 | 4 | 301 | 8.0 | 16.1 | 0.00 | 0.00 | 0.00 | 68 | 1002.5 |
| 20260503031824 | 4 | 290 | 6.4 | 12.9 | 0.00 | 0.00 | 0.00 | 69 | 1002.5 |
| 20260503030924 | 3 | 286 | 6.4 | 14.5 | 0.00 | 0.00 | 0.00 | 68 | 1002.5 |
| 20260503030004 | 3 | 291 | 6.4 | 14.5 | 0.00 | 0.00 | 0.00 | 69 | 1002.4 |
| 20260503025403 | 3 | 296 | 4.8 | 12.9 | 0.00 | 0.00 | 0.00 | 68 | 1002.4 |
| 20260503024503 | 3 | 286 | 6.4 | 12.9 | 0.00 | 0.00 | 0.00 | 68 | 1002.4 |
| 20260503023603 | 4 | 278 | 6.4 | 12.9 | 0.00 | 0.00 | 0.00 | 68 | 1002.4 |
| 20260503022703 | 4 | 286 | 6.4 | 11.3 | 0.00 | 0.00 | 0.00 | 68 | 1002.3 |
| 20260503021803 | 5 | 294 | 6.4 | 14.5 | 0.00 | 0.00 | 0.00 | 67 | 1002.2 |
| 20260503020924 | 5 | 290 | 8.0 | 17.7 | 0.00 | 0.00 | 0.00 | 66 | 1002.3 |
| 20260503020004 | 5 | 286 | 9.7 | 17.7 | 0.00 | 0.00 | 0.00 | 66 | 1002.3 |
| 20260503015403 | 5 | 285 | 9.7 | 17.7 | 0.00 | 0.00 | 0.00 | 66 | 1002.4 |
| 20260503014503 | 5 | 288 | 6.4 | 12.9 | 0.00 | 0.00 | 0.00 | 66 | 1002.2 |
| 20260503013624 | 5 | 289 | 4.8 | 11.3 | 0.00 | 0.00 | 0.00 | 66 | 1002.4 |
| 20260503012703 | 5 | 262 | 4.8 | 9.7 | 0.00 | 0.00 | 0.00 | 65 | 1002.3 |
| 20260503011803 | 5 | 263 | 3.2 | 9.7 | 0.00 | 0.00 | 0.00 | 64 | 1002.3 |
| 20260503010904 | 5 | 280 | 4.8 | 12.9 | 0.00 | 0.00 | 0.00 | 63 | 1002.1 |
| 20260503010004 | 5 | 275 | 4.8 | 11.3 | 0.00 | 0.00 | 0.00 | 62 | 1002.2 |
| 20260503005403 | 5 | 278 | 4.8 | 11.3 | 0.00 | 0.00 | 0.00 | 62 | 1002.2 |
| 20260503004503 | 5 | 283 | 4.8 | 16.1 | 0.00 | 0.00 | 0.00 | 63 | 1002.1 |
| 20260503003603 | 6 | 287 | 4.8 | 16.1 | 0.00 | 0.00 | 0.00 | 63 | 1002.3 |
| 20260503002703 | 6 | 275 | 6.4 | 12.9 | 0.00 | 0.00 | 0.00 | 64 | 1002.3 |
| 20260503001803 | 6 | 274 | 6.4 | 11.3 | 0.00 | 0.00 | 0.00 | 64 | 1002.2 |
| 20260503000924 | 6 | 283 | 4.8 | 12.9 | 0.00 | 0.00 | 0.00 | 65 | 1002.2 |
| 20260503000004 | 6 | 285 | 6.4 | 12.9 | 0.00 | 0.00 | 0.00 | 65 | 1002.3 |
| 20260502235403 | 6 | 289 | 6.4 | 14.5 | 0.00 | 0.00 | 0.00 | 66 | 1002.3 |
| 20260502234503 | 6 | 275 | 4.8 | 11.3 | 0.00 | 0.00 | 0.00 | 67 | 1002.3 |
| 20260502233603 | 6 | 274 | 4.8 | 11.3 | 0.00 | 0.00 | 0.00 | 67 | 1002.2 |
| 20260502232724 | 6 | 286 | 8.0 | 14.5 | 0.00 | 0.00 | 0.00 | 67 | 1002.2 |
| 20260502231803 | 6 | 292 | 9.7 | 19.3 | 0.00 | 0.00 | 0.00 | 69 | 1002.3 |
| 20260502230903 | 6 | 296 | 8.0 | 19.3 | 0.00 | 0.00 | 0.00 | 70 | 1002.2 |
| 20260502230024 | 6 | 305 | 6.4 | 11.3 | 0.00 | 0.00 | 0.00 | 71 | 1002.0 |
| 20260502225403 | 6 | 301 | 4.8 | 9.7 | 0.00 | 0.00 | 0.00 | 71 | 1002.1 |
| 20260502224524 | 6 | 306 | 4.8 | 11.3 | 0.00 | 0.00 | 0.00 | 71 | 1002.1 |
| 20260502223603 | 6 | 304 | 4.8 | 9.7 | 0.00 | 0.00 | 0.00 | 72 | 1002.1 |
| 20260502222703 | 6 | 299 | 4.8 | 11.3 | 0.00 | 0.00 | 0.00 | 72 | 1002.1 |
| 20260502221824 | 6 | 308 | 6.4 | 12.9 | 0.00 | 0.00 | 0.00 | 72 | 1002.0 |
| 20260502220903 | 7 | 292 | 6.4 | 14.5 | 0.00 | 0.00 | 0.00 | 72 | 1002.1 |
| 20260502220003 | 7 | 294 | 6.4 | 11.3 | 0.00 | 0.00 | 0.00 | 72 | 1001.9 |
| 20260502215403 | 7 | 294 | 4.8 | 11.3 | 0.00 | 0.00 | 0.00 | 72 | 1002.0 |
| 20260502214503 | 7 | 287 | 6.4 | 14.5 | 0.00 | 0.00 | 0.00 | 72 | 1001.9 |
| 20260502213603 | 7 | 289 | 6.4 | 12.9 | 0.00 | 0.00 | 0.00 | 73 | 1001.9 |
| 20260502212703 | 7 | 288 | 6.4 | 12.9 | 0.00 | 0.00 | 0.00 | 72 | 1001.8 |
| 20260502211803 | 7 | 289 | 6.4 | 12.9 | 0.00 | 0.00 | 0.00 | 72 | 1001.8 |
| 20260502210924 | 7 | 294 | 6.4 | 12.9 | 0.00 | 0.00 | 0.00 | 72 | 1001.8 |
| 20260502210006 | 7 | 291 | 4.8 | 11.3 | 0.00 | 0.00 | 0.00 | 72 | 1001.8 |
| 20260502205403 | 7 | 296 | 4.8 | 12.9 | 0.00 | 0.00 | 0.00 | 72 | 1001.8 |
| 20260502204503 | 7 | 299 | 4.8 | 9.7 | 0.00 | 0.00 | 0.00 | 72 | 1001.8 |
| 20260502203624 | 7 | 295 | 4.8 | 11.3 | 0.00 | 0.00 | 0.00 | 71 | 1001.7 |
| 20260502202703 | 8 | 287 | 6.4 | 12.9 | 0.00 | 0.00 | 0.00 | 71 | 1001.8 |
| 20260502201803 | 8 | 288 | 6.4 | 14.5 | 0.00 | 0.00 | 0.00 | 70 | 1001.7 |
| 20260502200903 | 8 | 292 | 8.0 | 14.5 | 0.00 | 0.00 | 0.00 | 69 | 1001.6 |
| 20260502200003 | 8 | 291 | 9.7 | 17.7 | 0.00 | 0.00 | 0.00 | 68 | 1001.7 |
| 20260502195424 | 8 | 292 | 9.7 | 17.7 | 0.00 | 0.00 | 0.00 | 68 | 1001.6 |
| 20260502194503 | 9 | 281 | 9.7 | 17.7 | 0.00 | 0.00 | 0.00 | 68 | 1001.6 |
| 20260502193603 | 8 | 277 | 4.8 | 14.5 | 0.00 | 0.00 | 0.00 | 70 | 1001.5 |
| 20260502192703 | 8 | 238 | 1.6 | 4.8 | 0.00 | 0.00 | 0.00 | 71 | 1001.4 |
| 20260502191824 | 7 | 252 | 0.0 | 6.4 | 0.00 | 0.00 | 0.00 | 71 | 1001.4 |
| 20260502190903 | 8 | 0 | 0.0 | 0.0 | 0.00 | 0.00 | 0.00 | 70 | 1001.4 |
| 20260502190004 | 8 | 0 | 0.0 | 0.0 | 0.00 | 0.00 | 0.00 | 68 | 1001.3 |
| 20260502185403 | 8 | 0 | 0.0 | 0.0 | 0.00 | 0.00 | 0.00 | 67 | 1001.3 |
| 20260502184503 | 9 | 0 | 0.0 | 0.0 | 0.00 | 0.00 | 0.00 | 66 | 1001.3 |
| 20260502183624 | 10 | 289 | 0.0 | 3.2 | 0.00 | 0.00 | 0.00 | 65 | 1001.3 |
| 20260502182703 | 10 | 290 | 0.0 | 3.2 | 0.00 | 0.00 | 0.00 | 63 | 1001.2 |
| 20260502181824 | 11 | 0 | 0.0 | 0.0 | 0.00 | 0.00 | 0.00 | 62 | 1001.3 |
| 20260502180903 | 11 | 290 | 0.0 | 3.2 | 0.00 | 0.00 | 0.00 | 61 | 1001.3 |
| 20260502163603 | 12 | 299 | 9.7 | 16.1 | 0.00 | 0.00 | 0.00 | 56 | 1001.5 |
| 20260502162703 | 13 | 299 | 9.7 | 17.7 | 0.00 | 0.00 | 0.00 | 55 | 1001.6 |
| 20260502161803 | 13 | 296 | 12.9 | 27.4 | 0.00 | 0.00 | 0.00 | 55 | 1001.6 |
| 20260502160903 | 13 | 306 | 12.9 | 24.1 | 0.00 | 0.00 | 0.00 | 53 | 1001.6 |
| 20260502151825 | 14 | 283 | 14.5 | 32.2 | 0.00 | 0.00 | 0.00 | 52 | 1001.7 |
| 20260502150925 | 14 | 303 | 12.9 | 32.2 | 0.00 | 0.00 | 0.00 | 52 | 1001.7 |
| 20260502123604 | 16 | 278 | 17.7 | 32.2 | 0.00 | 0.00 | 0.00 | 43 | 1001.5 |
| 20260502122704 | 16 | 285 | 16.1 | 30.6 | 0.00 | 0.00 | 0.00 | 43 | 1001.4 |
| 20260502121804 | 16 | 296 | 19.3 | 30.6 | 0.00 | 0.00 | 0.00 | 44 | 1001.3 |
| 20260502120904 | 16 | 296 | 17.7 | 37.0 | 0.00 | 0.00 | 0.00 | 43 | 1001.4 |
| 20260502115404 | 16 | 298 | 16.1 | 25.7 | 0.00 | 0.00 | 0.00 | 46 | 1001.3 |
| 20260502114525 | 16 | 297 | 17.7 | 32.2 | 0.00 | 0.00 | 0.00 | 47 | 1001.3 |
| 20260502113604 | 16 | 278 | 12.9 | 24.1 | 0.00 | 0.00 | 0.00 | 49 | 1001.3 |
| 20260502112704 | 16 | 264 | 11.3 | 22.5 | 0.00 | 0.00 | 0.00 | 51 | 1001.4 |
| 20260502111825 | 16 | 276 | 14.5 | 30.6 | 0.00 | 0.00 | 0.00 | 52 | 1001.4 |
| 20260502110904 | 16 | 280 | 14.5 | 25.7 | 0.00 | 0.00 | 0.00 | 50 | 1001.4 |
| 20260502110025 | 16 | 274 | 11.3 | 27.4 | 0.00 | 0.00 | 0.00 | 50 | 1001.4 |
| 20260502105425 | 16 | 273 | 8.0 | 20.9 | 0.00 | 0.00 | 0.00 | 49 | 1001.4 |
| 20260502104504 | 16 | 283 | 11.3 | 25.7 | 0.00 | 0.00 | 0.00 | 48 | 1001.2 |
| 20260502103625 | 17 | 240 | 8.0 | 16.1 | 0.00 | 0.00 | 0.00 | 47 | 1001.2 |
| 20260502102725 | 17 | 266 | 8.0 | 20.9 | 0.00 | 0.00 | 0.00 | 47 | 1001.1 |
| 20260502101804 | 16 | 246 | 6.4 | 19.3 | 0.00 | 0.00 | 0.00 | 47 | 1001.2 |
| 20260502100904 | 17 | 240 | 9.7 | 20.9 | 0.00 | 0.00 | 0.00 | 46 | 1001.2 |
| 20260502090904 | 16 | 255 | 4.8 | 19.3 | 0.00 | 0.00 | 0.00 | 46 | 1001.8 |
| 20260502070904 | 12 | 173 | 9.7 | 19.3 | 0.00 | 0.00 | 0.00 | 58 | 1003.3 |
| 20260502070004 | 12 | 168 | 9.7 | 19.3 | 0.00 | 0.00 | 0.00 | 60 | 1003.5 |
| 20260502065404 | 12 | 167 | 11.3 | 19.3 | 0.00 | 0.00 | 0.00 | 59 | 1003.6 |
| 20260502064504 | 12 | 176 | 8.0 | 17.7 | 0.00 | 0.00 | 0.00 | 61 | 1003.7 |
| 20260502063604 | 11 | 177 | 8.0 | 17.7 | 0.00 | 0.00 | 0.00 | 60 | 1003.9 |
| 20260502062704 | 11 | 169 | 8.0 | 16.1 | 0.00 | 0.00 | 0.00 | 61 | 1003.9 |
| 20260502061825 | 11 | 172 | 8.0 | 16.1 | 0.00 | 0.00 | 0.00 | 61 | 1004.1 |
| 20260502060904 | 11 | 175 | 8.0 | 14.5 | 0.00 | 0.00 | 0.00 | 61 | 1004.2 |
| 20260502060004 | 11 | 178 | 6.4 | 14.5 | 0.00 | 0.00 | 0.00 | 63 | 1004.4 |
| 20260502055404 | 11 | 188 | 6.4 | 16.1 | 0.00 | 0.00 | 0.00 | 63 | 1004.5 |
| 20260502054504 | 10 | 185 | 8.0 | 16.1 | 0.00 | 0.00 | 0.00 | 65 | 1004.7 |
| 20260502053625 | 10 | 169 | 8.0 | 16.1 | 0.00 | 0.00 | 0.00 | 68 | 1004.7 |
| 20260502052704 | 9 | 169 | 6.4 | 12.9 | 0.00 | 0.00 | 0.00 | 70 | 1004.9 |
| 20260502051825 | 8 | 157 | 6.4 | 11.3 | 0.00 | 0.00 | 0.00 | 72 | 1005.0 |
| 20260502050904 | 8 | 169 | 4.8 | 11.3 | 0.00 | 0.00 | 0.00 | 72 | 1004.9 |